TimeAFT,TemperatureF,Dew PointF,Humidity,Sea Level PressureIn,VisibilityMPH,Wind Direction,Wind SpeedMPH,Gust SpeedMPH,PrecipitationIn,Events,Conditions,WindDirDegrees,DateUTC
12:20 AM,51.8,33.8,50,30.15,6.2,Calm,Calm,-,N/A,,Partly Cloudy,0,2013-11-28 19:50:00
1:20 AM,48.2,32.0,54,30.15,6.2,Variable,1.2,-,N/A,,Partly Cloudy,0,2013-11-28 20:50:00
2:20 AM,48.2,32.0,54,30.15,6.2,South,3.5,-,N/A,,Partly Cloudy,170,2013-11-28 21:50:00
3:20 AM,50.0,32.0,50,30.15,6.2,SSW,5.8,-,N/A,,Partly Cloudy,210,2013-11-28 22:50:00
4:20 AM,51.8,32.0,47,30.15,6.2,SSW,4.6,-,N/A,,Partly Cloudy,210,2013-11-28 23:50:00
5:20 AM,48.2,30.2,50,30.15,6.2,SE,2.3,-,N/A,,Partly Cloudy,140,2013-11-29 00:50:00
6:20 AM,46.4,30.2,53,30.15,5.6,SE,1.2,-,N/A,,Partly Cloudy,140,2013-11-29 01:50:00
8:20 AM,50.0,30.2,47,30.18,5.6,NE,2.3,-,N/A,,Mostly Cloudy,50,2013-11-29 03:50:00
9:20 AM,55.4,28.4,36,30.18,5.6,West,1.2,-,N/A,,Mostly Cloudy,270,2013-11-29 04:50:00
10:05 AM,57.2,30.2,36,30.18,3.7,North,1.2,-,N/A,,Mostly Cloudy,360,2013-11-29 05:35:00
10:20 AM,59.0,30.2,34,30.18,3.7,North,2.3,-,N/A,,Mostly Cloudy,10,2013-11-29 05:50:00
11:20 AM,62.6,28.4,27,30.15,3.7,Variable,1.2,-,N/A,,Mostly Cloudy,0,2013-11-29 06:50:00
12:20 PM,66.2,26.6,23,30.15,5.0,Variable,1.2,-,N/A,,Mostly Cloudy,0,2013-11-29 07:50:00
1:20 PM,68.0,28.4,23,30.12,6.2,NE,10.4,-,N/A,,Mostly Cloudy,40,2013-11-29 08:50:00
2:20 PM,69.8,28.4,21,30.12,6.2,ENE,8.1,-,N/A,,Mostly Cloudy,60,2013-11-29 09:50:00
3:20 PM,69.8,26.6,20,30.12,6.2,ENE,6.9,-,N/A,,Mostly Cloudy,60,2013-11-29 10:50:00
4:20 PM,66.2,30.2,26,30.12,6.2,East,6.9,-,N/A,,Mostly Cloudy,80,2013-11-29 11:50:00
5:20 PM,62.6,32.0,32,30.12,6.2,Variable,1.2,-,N/A,,Mostly Cloudy,0,2013-11-29 12:50:00
6:20 PM,59.0,32.0,36,30.15,6.2,ENE,1.2,-,N/A,,Mostly Cloudy,70,2013-11-29 13:50:00
7:20 PM,59.0,24.8,27,30.15,6.2,ESE,3.5,-,N/A,,Mostly Cloudy,110,2013-11-29 14:50:00
8:20 PM,59.0,24.8,27,30.15,6.2,North,1.2,-,N/A,,Mostly Cloudy,360,2013-11-29 15:50:00
10:20 PM,57.2,26.6,31,30.15,6.2,SE,1.2,-,N/A,,Mostly Cloudy,130,2013-11-29 17:50:00
11:20 PM,53.6,24.8,33,30.15,6.2,West,1.2,-,N/A,,Mostly Cloudy,280,2013-11-29 18:50:00